West Memphis, AR

5:34 PM CDT on May 28, 2017 (GMT -0500)
West Memphis Municipal

Weather History for KAWM - October, 2011

Change the Weather History Date:

Saturday, October 8, 2011

  Actual Average Record
Temperature  
Mean Temperature 70 °F -  
Max Temperature 84 °F 76 °F 91 °F (1963)
Min Temperature 57 °F 51 °F 35 °F (1991)
Cooling Degree Days 4    
Growing Degree Days 20 (Base 50)    
Moisture  
Dew Point 56 °F    
Average Humidity 61    
Maximum Humidity 87    
Minimum Humidity 37    
Precipitation  
Precipitation 0.00 in - - ()
Sea Level Pressure  
Sea Level Pressure 30.21 in    
Wind  
Wind Speed 9 mph (SE)    
Max Wind Speed 16 mph    
Max Gust Speed 26 mph    
Visibility 10 miles    
Events      
Averages and records for this station are not official NWS values.
T = Trace of Precipitation, MM = Missing Value Source: NWS Daily Summary

Daily Weather History Graph

Daily Weather History Graph

Search for Another Location

Airport or City:

Trip Planner

Search our weather history database for the weather conditions in past years. The results will help you decide how hot, cold, wet, or windy it might be!

Date:

Astronomy

Oct. 08, 2011 Rise Set
Actual Time 7:01 AM CDT 6:35 PM CDT
Civil Twilight 6:35 AM CDT 7:00 PM CDT
Nautical Twilight 6:06 AM CDT 7:30 PM CDT
Astronomical Twilight 5:36 AM CDT 7:59 PM CDT
Moon 4:41 PM CDT (10/8) 3:54 AM CDT (10/8)
Length of Visible Light 12h 25m
Length of Day
11h 34m
Waxing Gibbous, 90% of the Moon is Illuminated
Oct 8
Waxing Gibbous
Oct 11
Full
Oct 19
Last Quarter
Oct 26
New
Nov 2
First Quarter

Hourly Weather History & Observations

Time (CDT) Temp. Heat Index Dew Point Humidity Pressure Visibility Wind Dir Wind Speed Gust Speed Precip Events Conditions
12:53 AM 64.0 °F - 55.0 °F 73% 30.21 in 10.0 mi SE 6.9 mph - N/A   Clear
1:53 AM 63.0 °F - 55.0 °F 75% 30.21 in 10.0 mi SSE 4.6 mph - N/A   Clear
2:53 AM 61.0 °F - 55.0 °F 81% 30.21 in 10.0 mi SSE 8.1 mph - N/A   Clear
3:53 AM 57.9 °F - 54.0 °F 87% 30.21 in 10.0 mi SSE 6.9 mph - N/A   Clear
4:53 AM 60.1 °F - 54.0 °F 80% 30.21 in 10.0 mi SSE 8.1 mph - N/A   Clear
5:53 AM 60.1 °F - 54.0 °F 80% 30.22 in 10.0 mi SSE 8.1 mph - N/A   Clear
6:53 AM 61.0 °F - 54.0 °F 78% 30.24 in 10.0 mi SE 6.9 mph - N/A   Clear
8:53 AM 68.0 °F - 55.9 °F 65% 30.27 in 10.0 mi SSE 12.7 mph - N/A   Clear
9:53 AM 73.0 °F - 57.9 °F 59% 30.27 in 10.0 mi South 16.1 mph 26.5 mph N/A   Clear
10:53 AM 75.9 °F - 59.0 °F 56% 30.27 in 10.0 mi South 11.5 mph 21.9 mph N/A   Clear
11:53 AM 79.0 °F - 57.9 °F 48% 30.26 in 10.0 mi SSE 15.0 mph 20.7 mph N/A   Clear
12:53 PM 81.0 °F 81.1 °F 57.9 °F 45% 30.23 in 10.0 mi SSE 12.7 mph - N/A   Clear
1:53 PM 82.0 °F 82.0 °F 57.9 °F 44% 30.21 in 10.0 mi South 11.5 mph - N/A   Clear
2:53 PM 82.9 °F 82.1 °F 55.9 °F 39% 30.19 in 10.0 mi SSE 12.7 mph - N/A   Clear
3:53 PM 82.9 °F 82.0 °F 55.0 °F 38% 30.18 in 10.0 mi SE 8.1 mph - N/A   Clear
4:53 PM 82.9 °F 81.9 °F 54.0 °F 37% 30.17 in 10.0 mi ESE 11.5 mph - N/A   Clear
6:53 PM 73.9 °F - 55.0 °F 52% 30.17 in 10.0 mi SE 5.8 mph - N/A   Clear
7:53 PM 70.0 °F - 55.9 °F 61% 30.17 in 10.0 mi ESE 4.6 mph - N/A   Clear
8:53 PM 70.0 °F - 57.0 °F 63% 30.19 in 10.0 mi East 4.6 mph - N/A   Clear
9:53 PM 72.0 °F - 57.0 °F 59% 30.19 in 10.0 mi ESE 9.2 mph - N/A   Clear
10:53 PM 71.1 °F - 55.0 °F 57% 30.20 in 10.0 mi ESE 8.1 mph - N/A   Clear
11:53 PM 69.1 °F - 55.0 °F 61% 30.20 in 10.0 mi SE 10.4 mph - N/A   Clear